Regional Weather Roundup
Issued by NWS

Home | Current Version | Previous Version | Graphics & Text | Print | Product List | Glossary On
Versions: 1 2 3 4 5 6 7 8 9 10 11 12 13 14 15 16 17 18 19 20 21 22 23 24 25 26 27 28
000
ASUS45 KPSR 281610
RWRAZ

ARIZONA HOURLY REGIONAL WEATHER ROUNDUP
NATIONAL WEATHER SERVICE PHOENIX AZ
900 AM MST THU APR 28 2016

NOTE: FAIR INDICATES FEW OR NO CLOUDS BELOW 12,000 FEET WITH NO
SIGNIFICANT WEATHER AND/OR OBSTRUCTIONS TO VISIBILITY.

AZZ001>003-036-281700-
NORTHWEST ARIZONA

CITY           SKY/WX    TMP DP  RH WIND       PRES   REMARKS
BULLHEAD CITY  PTSUNNY   59  48  67 N12       29.71S
KINGMAN        CLOUDY    46  43  89 NE8       29.72R
$$

AZZ004>008-015-016-018-281700-
NORTH CENTRAL ARIZONA

CITY           SKY/WX    TMP DP  RH WIND       PRES   REMARKS
GRAND CANYON   PTSUNNY   42  30  62 SW13      29.71S
WILLIAMS       FAIR      45  27  49 S16G25    29.78S
PRESCOTT       PTSUNNY   50  30  46 SW10G18   29.71S
FLAGSTAFF      FAIR      42  25  50 SW16G28   29.73S
PAYSON         CLOUDY    48  28  46 SW12G17   29.78R
PAGE           LGT RAIN  49  40  71 NW3       29.69R
$$

AZZ009>014-017-281700-
NORTHEAST ARIZONA

CITY           SKY/WX    TMP DP  RH WIND       PRES   REMARKS
WINSLOW        CLOUDY    56  26  31 SW23G31   29.72S
SAINT JOHNS    FAIR      60  13  15 SW22G37   29.73S
WINDOW ROCK    PTSUNNY   52  24  33 S14G30    29.80S
SHOW LOW       FAIR      50  19  29 SW28G38   29.76F
$$

AZZ023-281700-
GREATER PHOENIX AREA

CITY           SKY/WX    TMP DP  RH WIND       PRES   REMARKS
PHOENIX        PTSUNNY   66  26  22 NW7       29.69R
BUCKEYE        FAIR      64  32  29 SW10G21   29.73R
GLENDALE       MOSUNNY   66  32  28 S12G17    29.71S
LUKE AFB       FAIR      66  33  30 SW14      29.69R
DEER VALLEY    PTSUNNY   65  29  25 SW14      29.70R
SCOTTSDALE     FAIR      65  27  23 SW6       29.72R
MESA-FALCON    PTSUNNY  N/A N/A N/A S13       29.69R
MESA-GATEWAY   MOSUNNY   66  28  24 SW16      29.73R
CHANDLER       PTSUNNY   66  28  24 S16       29.71S
$$

AZZ027-028-281700-
SOUTHWEST MARICOPA COUNTY AND PINAL COUNTY

CITY           SKY/WX    TMP DP  RH WIND       PRES   REMARKS
CASA GRANDE    FAIR      66  30  26 W12       29.74S
GILA BEND      MOSUNNY   66  28  24 SW14      29.72S
$$

AZZ503-504-507>509-281700-
SOUTHEAST ARIZONA

CITY           SKY/WX    TMP DP  RH WIND       PRES   REMARKS
TUCSON         FAIR      70  21  15 S18G25    29.76S
DAVIS-MONTHAN  FAIR      69  23  17 S15G28    29.74F
RYAN FIELD     SUNNY     73  25  16 SW17G25   29.75S
NOGALES        FAIR      67  25  20 S16       29.82F
SIERRA VISTA   FAIR      64  18  16 S13G23    29.84F
DOUGLAS        FAIR      64  23  21 S13G22    29.85S
SAFFORD        FAIR      70  19  14 VRB6G17   29.73S
$$

AZZ020-021-025-026-031-281700-
SOUTHWEST ARIZONA

CITY           SKY/WX    TMP DP  RH WIND       PRES   REMARKS
YUMA           FAIR      64  35  34 W28G37    29.74F
$$

CAZ031-033-041-043-047-048-061-281700-
SOUTHERN CALIFORNIA

CITY           SKY/WX    TMP DP  RH WIND       PRES   REMARKS
DOWNTOWN L.A.  FAIR      60  47  61 CALM      29.83S
L.A. AIRPORT   FAIR      59  47  64 S5        29.84S
SAN DIEGO      CLOUDY    59  47  64 W7        29.89R
BURBANK        FAIR      57  44  62 E3        29.82S
ONTARIO        PTSUNNY   56  43  61 CALM      29.83R
RIVERSIDE      CLOUDY    57  43  59 CALM      29.83S
PALM SPRINGS   PTSUNNY   63  40  42 VRB7      29.75R
EL CENTRO NAS  FAIR      64  37  36 W31G39    29.78R
IMPERIAL       FAIR      66  39  37 W26G36    29.75S
BLYTHE         FAIR      67  38  34 W16       29.70S
NEEDLES        FAIR      61  47  59 N6        29.69R
$$

NVZ020-UTZ003-281700-
SOUTHERN NEVADA-UTAH

CITY           SKY/WX    TMP DP  RH WIND       PRES   REMARKS
LAS VEGAS      PTSUNNY   59  44  57 CALM      29.62R
SALT LAKE CITY LGT RAIN  49  36  61 CALM      29.71R
$$

NMZ009-TXZ055-281700-
NEW MEXICO-WEST TEXAS

CITY           SKY/WX    TMP DP  RH WIND       PRES   REMARKS
ALBUQUERQUE    MOSUNNY   64  22  20 S13G21    29.80F
EL PASO        FAIR      72  19  13 SW12      29.81F
$$


........................KEY........................
SKY/WX - SKY CONDITION/WEATHER
TMP    - TEMPERATURE IN FAHRENHEIT
DP     - DEW POINT IN FAHRENHEIT
RH     - RELATIVE HUMIDITY IN PERCENT
WIND   - DIRECTION AND SPEED IN MILES PER HOUR (MPH)
VRB    - VARIABLE WIND DIRECTION
PRES   - MEAN SEA LEVEL PRESSURE IN INCHES OF MERCURY
         F - FALLING PRESSURE   R - RISING PRESSURE
         S - STEADY PRESSURE
VSB    - VISIBILITY IN MILES
HX     - HEAT INDEX IN FAHRENHEIT
WCI    - WIND CHILL INDEX IN FAHRENHEIT
TC     - TEMPERATURE IN CELSIUS WHICH IS ALSO KNOWN AS
         TEMPERATURE IN CENTIGRADE
AFB    - AIR FORCE BASE
         LUKE AFB IS LUKE AIR FORCE BASE
         DAVIS-MONTHAN IS DAVIS-MONTHAN AIR FORCE BASE
NAS    - NAVAL AIR STATION
         EL CENTRO NAS IS EL CENTRO NAVAL AIR STATION
N/A    - NOT AVAILABLE





USA.gov is the U.S. government's official web portal to all federal, state and local government web resources and services.